User: anonymous   Login
Location: Austin
(30.3000°N, 97.7500°W)
Time: 16:30:42
(UTC-05:00)
Language:

SL-8 Rocket - Orbit

View from above orbital plane
View from above orbital plane
View from above satellite
View from above satellite

Ground track
Ground track

The orbit data is extracted from the following two-line orbital elements,

1 21088U 91006B   24205.42309439  .00000083  00000-0  68118-4 0  9991
2 21088  82.9403 252.0872 0021146 258.8209 111.5425 13.77354470682265
Epoch (UTC): 23 July 2024 10:09:15
Eccentricity: 0.0021146
inclination: 82.9403°
perigee height: 958 km
apogee height: 989 km
right ascension of ascending node: 252.0872°
argument of perigee: 258.8209°
revolutions per day: 13.77354470
mean anomaly at epoch: 111.5425°
orbit number at epoch: 68226

The dashed part of the orbit path shows where the satellite is in the earth's shadow,  

DLR